Terug naar catalogus

STARLINK-30355

ActiefCommunicatieVLEO
NORAD 57777·PAYLOAD·🇺🇸 United States

Gelanceerd Sep 4, 2023 vanaf Cape Canaveral Space Force Station

Loading…

Volgende Passages (komende 24 uur)

TLE

VersSource: CelesTrak SupGP

Epoch: Sep 14, 2026, 21:30 UTC

1 57777C 23134G   26257.89631944  .00019177  00000+0  69464-3 0  2575
2 57777  43.0010 209.4401 0001224 250.0727  59.0034 15.27566558    17

Volg STARLINK-30355 in realtime met AllMySat

Download on the App Store